Regional Weather Roundup
Issued by NWS

Home | Current Version | Previous Version | Graphics & Text | Print | Product List | Glossary On
Versions: 1 2 3 4 5 6 7 8 9 10 11 12 13 14 15 16 17 18 19 20 21 22 23 24 25 26 27 28 29 30 31 32 33 34 35 36 37 38 39 40 41 42 43 44 45 46 47 48 49 50
903
ASUS44 KLIX 010905
RWRLA
LOUISIANA WEATHER ROUNDUP
NATIONAL WEATHER SERVICE NEW ORLEANS LA
400 AM CDT FRI AUG 01 2014

NOTE: "FAIR" INDICATES FEW OR NO CLOUDS BELOW 12,000 FEET WITH NO
      SIGNIFICANT WEATHER AND/OR OBSTRUCTIONS TO VISIBILITY.
      SKY/WX - SKY CONDITION AND SIGNIFICANT WEATHER.
      TMP - AIR TEMPERATURE.    DP   - DEWPOINT TEMPERATURE.
      RH  - RELATIVE HUMIDITY.  PRES - PRESSURE.
      HX  - HEAT INDEX.         WCI  - WIND CHILL INDEX.

*  THESE STATIONS ARE NOT NWS OR FAA STATIONS AND ARE NOT UNDER
   NWS QUALITY CONTROL.

LAZ040-048-061>063-065-066-069-011000-
SOUTHEAST LOUISIANA

CITY           SKY/WX    TMP DP  RH WIND       PRES   REMARKS
N.O. AUDUBON     N/A     82  68  62 MISG        N/A
N.O. INTL ARPT CLOUDY    77  71  82 CALM      29.97S
N.O. LAKEFRONT MOCLDY    80  69  69 E3        29.98S
N.O. DOWNTOWN* FAIR      81  64  57 CALM      29.98R
SLIDELL        MOCLDY    73  68  84 CALM      29.97S
BATON ROUGE    MOCLDY    73  68  84 NE5       29.97S
BOOTHVILLE     PTCLDY    77  66  68 SE5       29.97F
BELLE CHASSE   CLOUDY    74  70  87 CALM      29.96F
BOGALUSA*      FAIR      73  68  85 CALM      30.00S
GALLIANO*      NOT AVBL
NEW ROADS*     PTSUNNY   74  67  77 CALM      29.97S
GONZALES*      FAIR      73  73 100 CALM      29.97R
HAMMOND*       CLOUDY    73  66  78 CALM      29.99F
HOUMA*         MOCLDY    73  69  87 CALM      29.96F
PORT FOURCHON* SUNNY     82  64  54 E5        29.97F

$$

LAZ041-044-053-054-011000-
SOUTHWEST LOUISIANA

CITY           SKY/WX    TMP DP  RH WIND       PRES   REMARKS
LAKE CHARLES   CLOUDY    79  77  94 CALM      29.93S
LAFAYETTE      MOCLDY    76  74  93 CALM      29.96R
PATTERSON      CLOUDY    75  73  94 SE3       29.99S
SALT POINT       N/A     84  73  69 VRB3      29.95S
NEW IBERIA     MOCLDY    78  74  87 SE5       29.96R
CHENAULT AIRPK MOCLDY    78  75  91 CALM      29.94S

$$

LAZ027-028-011000-
CENTRAL LOUISIANA

CITY           SKY/WX    TMP DP  RH WIND       PRES   REMARKS
FORT POLK      CLOUDY    74  73  97 SE5       29.93F
ALEXANDRIA INT LGT RAIN  75  70  84 SE10      29.92F
ALEXANDRIA     CLOUDY    73  66  78 NE5       29.96F

$$

LAZ001-002-011000-
NORTHWEST LOUISIANA

CITY           SKY/WX    TMP DP  RH WIND       PRES   REMARKS
SHREVEPORT     CLOUDY    67  65  93 E7        29.96S
BARKSDALE AFB  LGT RAIN  67  65  95 E8        29.96F
DTN SHREVEPORT LGT RAIN  67  65  93 E6        29.96F FOG

$$

LAZ014-016-011000-
NORTHEAST LOUISIANA

CITY           SKY/WX    TMP DP  RH WIND       PRES   REMARKS
MONROE         RAIN      69  67  93 NE3       30.00F FOG
TALLULAH       CLOUDY    73  68  84 E6        29.98F

$$




USA.gov is the U.S. government's official web portal to all federal, state and local government web resources and services.